SCP
0 0 0 0 0 0 0 0 0 0 0 0 0 0 0 0 0 0 0 0 0 0 0 0 0 0 0 0 0 0 0 0
0 0 0 0 0 0 0 0 0 0 0 0 0 0 0 0 0 0 0 0 0 0 0 0 0 0 0 0 0 0 0 0
0 0 0 0 0 0 0 0 0 0 0 0 0 0 0 0 0 0 0 0 0 0 0 0 0 0 0 0 0 0 0 0
0 0 0 0 0 0 0 0 0 0 0 0 0 0 0 0 0 0 0 0 0 0 0 0 0 0 0 0 0 0 0 0
0 0 0 0 0 0 0 0 0 0 0 0 0 0 0 0 0 0 0 0 0 0 0 0 0 0 0 0 0 0 0 0
0 0 0 0 0 0 0 0 0 0 0 0 0 0 0 0 0 0 0 0 0 0 0 0 0 0 0 0 0 0 0 0
0 0 0 0 0 0 0 0 0 0 0 0 0 0 0 0 0 0 0 0 0 0 0 0 0 0 0 0 0 0 0 0
0 0 0 0 0 0 0 0 0 0 0 0 0 0 -0 -0 0 0 0 0 0 0 0 0 0 0 0 0 0 0 0 0
0 0 0 0 0 0 0 0 0 0 0 0 -0 -0 -0 0 0 0 0 0 0 0 0 0 0 0 0 0 0 0 0 0
-0 0 0 0 0 0 0 0 0 -0 0 0 0 0 0 0 0 0 0 0 0 0 0 0 0 0 0 0 0 0 0 0
-0 -0 -0 -0 -0 0 -0 -0 -0 -0 0 0 0 0 0 0 0 0 0 0 0 0 0 0 0 0 0 0 0 0 0 0
0 -0 -0 0 0 0 -0 -0 0 0 0 0 0 0 0 0 0 0 0 0 0 0 0 0 0 0 0 0 0 0 0 0
0 0 0 0 0 0 -0 0 0 0 0 0 0 0 0 0 0 0 0 0 0 0 0 0 0 0 0 0 0 0 0 0
-0 0 0 0 0 0 0 0 0 0 0 0 0 0 0 0 0 0 0 0 0 0 0 0 0 0 0 0 0 0 0 0
0 0 -0 -0 -0 -0 0 0 0 0 0 0 0 0 0 0 0 0 0 0 0 0 0 0 0 0 0 0 0 0 0 0
0 0 -0 0 0 0 0 0 0 0 0 0 0 0 0 0 0 0 0 0 0 0 0 0 0 0 0 0 0 0 0 0
-0 -0 -0 -0 0 0 0 0 0 0 0 0 0 0 0 0 0 0 0 0 0 0 0 0 0 0 0 0 0 0 0 0
-0 -0 0 0 0 0 0 0 0 0 0 0 0 0 0 0 0 0 0 0 0 0 0 0 0 0 0 0 0 0 0 0
0 0 0 0 -0 0 0 0 0 0 0 0 0 0 0 0 0 0 0 0 0 0 0 0 0 0 0 0 0 0 0 0
0 0 0 0 -0 0 0 0 0 0 0 0 0 0 0 0 0 0 0 0 0 0 0 0 0 0 0 0 0 0 0 0
Wind_Speed_500mb
63 65 87 84 73 117 118 115 112 115 107 100 88 74 73 69 67 58 53 46 35 27 17 20 17 15 12 8 6 4 7 11
50 53 69 82 87 98 112 114 112 104 94 78 70 70 71 69 64 55 44 37 30 26 25 21 17 15 12 10 8 8 11 13
49 52 59 74 81 77 90 88 84 79 73 72 71 76 78 67 58 48 39 35 33 27 25 24 19 14 15 13 11 13 13 13
41 45 57 66 74 71 73 78 74 70 70 73 82 76 69 63 56 54 42 34 31 31 26 22 17 18 17 16 16 15 14 16
44 47 51 57 64 68 61 66 72 75 84 85 75 72 67 63 57 50 45 35 31 28 26 21 22 21 20 19 16 17 18 20
45 47 51 60 63 62 66 79 87 88 84 76 67 59 59 60 52 43 37 33 33 28 24 24 24 22 20 19 19 21 23 25
39 50 52 58 62 61 77 86 89 81 73 60 55 57 59 49 45 42 37 35 31 26 25 24 23 21 21 22 23 26 27 29
40 45 51 56 63 68 74 84 86 76 67 69 65 58 55 49 41 37 34 31 28 25 23 23 23 25 24 25 26 30 32 35
35 48 52 61 70 79 82 79 77 74 70 68 62 53 49 44 39 35 32 28 22 21 23 23 23 28 28 29 31 35 37 42
33 41 52 61 63 71 75 73 66 66 67 58 52 49 46 41 37 34 28 23 18 19 22 23 25 30 32 35 38 39 41 46
39 49 56 55 56 57 70 66 62 62 54 50 47 44 39 35 34 27 21 16 18 20 23 25 26 31 35 39 42 46 49 52
26 35 42 48 51 59 64 59 54 49 47 43 42 39 34 33 28 21 16 15 19 21 23 25 28 31 36 43 51 53 54 54
19 23 26 30 37 46 57 54 47 42 41 43 44 41 36 32 27 20 18 19 19 21 23 26 29 33 40 48 53 54 57 54
14 20 23 24 26 28 37 44 42 46 47 45 40 35 36 32 25 21 19 20 20 23 26 22 27 35 42 49 54 55 58 53
13 16 22 30 34 35 41 47 48 47 46 42 38 38 33 26 24 23 21 23 25 24 22 25 29 36 45 52 52 50 50 49
12 13 17 23 29 37 42 44 45 41 42 41 34 30 27 25 25 25 27 30 28 25 22 24 32 39 48 54 55 51 45 45
11 13 14 18 28 36 39 40 40 39 39 33 30 31 30 31 30 31 31 32 31 27 25 28 35 42 50 54 51 45 40 40
13 13 14 17 22 30 36 37 37 35 34 32 34 34 34 34 34 33 33 35 32 30 30 35 41 44 48 49 46 44 43 40
8 10 13 17 21 28 33 36 38 38 40 35 35 35 37 37 34 37 38 36 33 31 33 38 43 45 49 47 46 47 46 48
5 2 1 4 16 21 24 29 33 36 40 40 39 40 39 36 39 40 40 40 38 37 38 39 44 46 47 47 48 50 50 48
Wind_Direction_500mb
213 207 208 205 199 200 203 202 205 204 205 208 207 200 185 173 162 166 161 162 155 167 174 201 194 198 194 204 230 272 313 313
214 206 204 200 200 194 193 194 199 197 199 198 187 178 170 167 162 163 161 149 158 178 187 193 202 203 209 229 250 279 287 300
206 199 192 192 189 194 192 192 191 189 187 181 176 172 167 168 157 150 166 165 183 179 193 201 203 213 229 240 252 264 277 291
190 187 180 179 180 184 184 185 179 177 175 167 164 159 161 159 157 160 163 170 182 191 194 203 212 228 238 245 252 264 279 296
174 179 176 172 170 174 175 179 169 164 162 158 157 158 159 162 163 155 169 185 190 195 202 212 224 231 238 247 260 271 287 295
165 171 172 171 164 162 167 167 161 155 155 152 152 156 165 161 165 177 181 184 197 203 211 222 230 234 244 257 267 279 287 292
163 169 169 166 158 161 167 162 152 148 147 152 168 163 161 170 175 177 183 193 201 210 220 230 239 245 254 264 272 279 290 301
160 162 162 161 154 157 160 154 150 148 153 152 150 159 164 173 177 184 193 201 208 217 230 238 246 253 260 269 276 284 291 296
152 158 159 155 153 155 159 156 155 157 157 156 167 172 176 177 179 188 199 208 217 230 240 248 256 259 267 274 282 286 292 291
148 150 159 156 154 157 160 159 157 161 164 168 171 174 178 180 183 193 203 214 228 243 254 264 263 266 273 280 284 288 292 292
144 145 144 149 156 158 167 166 165 172 171 170 172 179 183 186 189 195 207 222 243 258 266 273 275 275 280 286 290 291 293 289
146 160 164 168 172 173 175 178 176 172 172 174 177 183 186 192 194 199 212 241 262 269 276 286 291 290 290 288 287 288 286 289
133 156 178 184 180 182 186 184 178 175 176 177 187 191 191 196 199 207 228 252 270 285 292 297 294 291 288 285 285 288 290 296
136 146 162 176 189 190 188 180 179 184 186 189 193 195 201 204 210 227 251 277 291 287 290 294 288 294 296 297 296 295 293 296
136 147 163 165 175 177 182 182 187 190 191 192 197 205 205 211 229 244 262 278 281 280 286 298 311 315 309 302 298 298 298 295
127 135 153 164 171 178 185 187 190 191 196 199 206 212 218 230 245 254 262 269 270 272 285 306 313 313 314 313 309 302 294 283
124 134 138 156 174 180 184 189 197 198 200 206 216 220 227 239 247 257 267 269 267 271 282 295 309 314 315 310 305 302 296 289
136 157 159 175 182 185 190 195 200 204 208 218 221 226 236 246 254 265 271 265 261 265 279 296 303 306 312 310 312 307 299 294
125 147 169 183 190 194 198 204 210 214 215 223 227 235 243 251 264 271 265 262 262 269 284 294 298 305 317 319 309 294 287 288
73 66 34 198 211 208 211 218 223 228 228 234 236 241 247 255 269 275 271 265 260 265 276 287 299 305 316 317 302 294 289 286
Wind_Speed_850mb
63 65 87 84 73 117 118 115 112 115 107 100 88 74 73 69 67 58 53 46 35 27 17 20 17 15 12 8 6 4 7 11
50 53 69 82 87 98 112 114 112 104 94 78 70 70 71 69 64 55 44 37 30 26 25 21 17 15 12 10 8 8 11 13
49 52 59 74 81 77 90 88 84 79 73 72 71 76 78 67 58 48 39 35 33 27 25 24 19 14 15 13 11 13 13 13
41 45 57 66 74 71 73 78 74 70 70 73 82 76 69 63 56 54 42 34 31 31 26 22 17 18 17 16 16 15 14 16
44 47 51 57 64 68 61 66 72 75 84 85 75 72 67 63 57 50 45 35 31 28 26 21 22 21 20 19 16 17 18 20
45 47 51 60 63 62 66 79 87 88 84 76 67 59 59 60 52 43 37 33 33 28 24 24 24 22 20 19 19 21 23 25
39 50 52 58 62 61 77 86 89 81 73 60 55 57 59 49 45 42 37 35 31 26 25 24 23 21 21 22 23 26 27 29
40 45 51 56 63 68 74 84 86 76 67 69 65 58 55 49 41 37 34 31 28 25 23 23 23 25 24 25 26 30 32 35
35 48 52 61 70 79 82 79 77 74 70 68 62 53 49 44 39 35 32 28 22 21 23 23 23 28 28 29 31 35 37 42
33 41 52 61 63 71 75 73 66 66 67 58 52 49 46 41 37 34 28 23 18 19 22 23 25 30 32 35 38 39 41 46
39 49 56 55 56 57 70 66 62 62 54 50 47 44 39 35 34 27 21 16 18 20 23 25 26 31 35 39 42 46 49 52
26 35 42 48 51 59 64 59 54 49 47 43 42 39 34 33 28 21 16 15 19 21 23 25 28 31 36 43 51 53 54 54
19 23 26 30 37 46 57 54 47 42 41 43 44 41 36 32 27 20 18 19 19 21 23 26 29 33 40 48 53 54 57 54
14 20 23 24 26 28 37 44 42 46 47 45 40 35 36 32 25 21 19 20 20 23 26 22 27 35 42 49 54 55 58 53
13 16 22 30 34 35 41 47 48 47 46 42 38 38 33 26 24 23 21 23 25 24 22 25 29 36 45 52 52 50 50 49
12 13 17 23 29 37 42 44 45 41 42 41 34 30 27 25 25 25 27 30 28 25 22 24 32 39 48 54 55 51 45 45
11 13 14 18 28 36 39 40 40 39 39 33 30 31 30 31 30 31 31 32 31 27 25 28 35 42 50 54 51 45 40 40
13 13 14 17 22 30 36 37 37 35 34 32 34 34 34 34 34 33 33 35 32 30 30 35 41 44 48 49 46 44 43 40
8 10 13 17 21 28 33 36 38 38 40 35 35 35 37 37 34 37 38 36 33 31 33 38 43 45 49 47 46 47 46 48
5 2 1 4 16 21 24 29 33 36 40 40 39 40 39 36 39 40 40 40 38 37 38 39 44 46 47 47 48 50 50 48
Wind_Direction_850mb
213 207 208 205 199 200 203 202 205 204 205 208 207 200 185 173 162 166 161 162 155 167 174 201 194 198 194 204 230 272 313 313
214 206 204 200 200 194 193 194 199 197 199 198 187 178 170 167 162 163 161 149 158 178 187 193 202 203 209 229 250 279 287 300
206 199 192 192 189 194 192 192 191 189 187 181 176 172 167 168 157 150 166 165 183 179 193 201 203 213 229 240 252 264 277 291
190 187 180 179 180 184 184 185 179 177 175 167 164 159 161 159 157 160 163 170 182 191 194 203 212 228 238 245 252 264 279 296
174 179 176 172 170 174 175 179 169 164 162 158 157 158 159 162 163 155 169 185 190 195 202 212 224 231 238 247 260 271 287 295
165 171 172 171 164 162 167 167 161 155 155 152 152 156 165 161 165 177 181 184 197 203 211 222 230 234 244 257 267 279 287 292
163 169 169 166 158 161 167 162 152 148 147 152 168 163 161 170 175 177 183 193 201 210 220 230 239 245 254 264 272 279 290 301
160 162 162 161 154 157 160 154 150 148 153 152 150 159 164 173 177 184 193 201 208 217 230 238 246 253 260 269 276 284 291 296
152 158 159 155 153 155 159 156 155 157 157 156 167 172 176 177 179 188 199 208 217 230 240 248 256 259 267 274 282 286 292 291
148 150 159 156 154 157 160 159 157 161 164 168 171 174 178 180 183 193 203 214 228 243 254 264 263 266 273 280 284 288 292 292
144 145 144 149 156 158 167 166 165 172 171 170 172 179 183 186 189 195 207 222 243 258 266 273 275 275 280 286 290 291 293 289
146 160 164 168 172 173 175 178 176 172 172 174 177 183 186 192 194 199 212 241 262 269 276 286 291 290 290 288 287 288 286 289
133 156 178 184 180 182 186 184 178 175 176 177 187 191 191 196 199 207 228 252 270 285 292 297 294 291 288 285 285 288 290 296
136 146 162 176 189 190 188 180 179 184 186 189 193 195 201 204 210 227 251 277 291 287 290 294 288 294 296 297 296 295 293 296
136 147 163 165 175 177 182 182 187 190 191 192 197 205 205 211 229 244 262 278 281 280 286 298 311 315 309 302 298 298 298 295
127 135 153 164 171 178 185 187 190 191 196 199 206 212 218 230 245 254 262 269 270 272 285 306 313 313 314 313 309 302 294 283
124 134 138 156 174 180 184 189 197 198 200 206 216 220 227 239 247 257 267 269 267 271 282 295 309 314 315 310 305 302 296 289
136 157 159 175 182 185 190 195 200 204 208 218 221 226 236 246 254 265 271 265 261 265 279 296 303 306 312 310 312 307 299 294
125 147 169 183 190 194 198 204 210 214 215 223 227 235 243 251 264 271 265 262 262 269 284 294 298 305 317 319 309 294 287 288
73 66 34 198 211 208 211 218 223 228 228 234 236 241 247 255 269 275 271 265 260 265 276 287 299 305 316 317 302 294 289 286